When you browse on this site, cookies collect data to enhance your experience and personalize the content and advertising you see.
Visit our Privacy Policy to learn more. By continuing to use the site, you agree to this use of cookies and data.

Hourly Weather Priuzenskiy

Today, 13 July, Monday

Time Temperature Precipitation Wind Pressure Humidity
00:00 +29°C° 0 mm 4 mps 754 mmHg 44%
01:00 +29°C° 0 mm 4 mps 754 mmHg 44%
02:00 +29°C° 0 mm 4 mps 754 mmHg 44%
03:00 +29°C° 0 mm 4 mps 754 mmHg 37%
04:00 +29°C° 0 mm 4 mps 754 mmHg 37%
05:00 +30°C° 0 mm 3 mps 754 mmHg 37%
06:00 +31°C° 0 mm 3 mps 754 mmHg 37%
07:00 +34°C° 0 mm 4 mps 754 mmHg 32%
08:00 +37°C° 0 mm 4 mps 754 mmHg 27%
09:00 +40°C° 0 mm 5 mps 754 mmHg 24%
10:00 +42°C° 0 mm 6 mps 754 mmHg 20%
11:00 +44°C° 0 mm 6 mps 753 mmHg 16%
12:00 +45°C° 0 mm 7 mps 753 mmHg 12%
13:00 +46°C° 0 mm 7 mps 752 mmHg 12%
14:00 +46°C° 0 mm 7 mps 752 mmHg 11%
15:00 +46°C° 0 mm 7 mps 752 mmHg 10%
16:00 +45°C° 0 mm 7 mps 751 mmHg 11%
17:00 +45°C° 0 mm 6 mps 751 mmHg 11%
18:00 +44°C° 0 mm 6 mps 751 mmHg 11%
19:00 +41°C° 0 mm 5 mps 751 mmHg 13%
20:00 +39°C° 0 mm 5 mps 751 mmHg 15%
21:00 +36°C° 0 mm 4 mps 751 mmHg 16%
22:00 +35°C° 0 mm 5 mps 752 mmHg 19%
23:00 +35°C° 0 mm 6 mps 752 mmHg 21%

Tomorrow, 14 July, Tuesday

Time Temperature Precipitation Wind Pressure Humidity
00:00 +34°C° 0 mm 7 mps 752 mmHg 24%
01:00 +33°C° 0 mm 6 mps 752 mmHg 26%
02:00 +33°C° 0 mm 6 mps 752 mmHg 28%
03:00 +32°C° 0 mm 5 mps 752 mmHg 31%
04:00 +33°C° 0 mm 5 mps 752 mmHg 29%
05:00 +34°C° 0 mm 6 mps 752 mmHg 27%
06:00 +35°C° 0 mm 6 mps 752 mmHg 25%
07:00 +38°C° 0 mm 8 mps 752 mmHg 22%
08:00 +40°C° 0 mm 9 mps 752 mmHg 18%
09:00 +43°C° 0 mm 11 mps 752 mmHg 15%
10:00 +44°C° 0 mm 11 mps 752 mmHg 14%
11:00 +46°C° 0 mm 11 mps 752 mmHg 13%
12:00 +47°C° 0 mm 11 mps 751 mmHg 11%
13:00 +47°C° 0 mm 10 mps 751 mmHg 11%
14:00 +47°C° 0 mm 10 mps 751 mmHg 11%
15:00 +47°C° 0 mm 9 mps 751 mmHg 11%
16:00 +43°C° 0 mm 9 mps 752 mmHg 19%
17:00 +39°C° 0 mm 9 mps 752 mmHg 27%
18:00 +35°C° 0 mm 9 mps 752 mmHg 35%
19:00 +34°C° 0 mm 7 mps 753 mmHg 37%
20:00 +33°C° 0 mm 5 mps 753 mmHg 40%
21:00 +31°C° 0 mm 3 mps 754 mmHg 43%
22:00 +30°C° 0 mm 3 mps 754 mmHg 45%
23:00 +30°C° 0 mm 3 mps 754 mmHg 47%

Day after tomorrow, 15 July, Wednesday

Time Temperature Precipitation Wind Pressure Humidity
00:00 +29°C° 0 mm 3 mps 754 mmHg 49%
01:00 +29°C° 0 mm 2 mps 754 mmHg 49%
02:00 +28°C° 0 mm 2 mps 754 mmHg 49%
03:00 +28°C° 0 mm 1 mps 754 mmHg 50%
04:00 +28°C° 0 mm 2 mps 754 mmHg 50%
05:00 +28°C° 0 mm 3 mps 754 mmHg 50%
06:00 +29°C° 0 mm 4 mps 754 mmHg 51%
07:00 +29°C° 0 mm 4 mps 754 mmHg 51%
08:00 +29°C° 0 mm 3 mps 755 mmHg 52%
09:00 +29°C° 0 mm 3 mps 755 mmHg 53%
10:00 +32°C° 0 mm 4 mps 755 mmHg 46%
11:00 +34°C° 0 mm 5 mps 755 mmHg 39%
12:00 +35°C° 0 mm 6 mps 755 mmHg 33%
13:00 +35°C° 0 mm 6 mps 755 mmHg 30%
14:00 +35°C° 0 mm 6 mps 755 mmHg 28%
15:00 +34°C° 0 mm 6 mps 756 mmHg 25%
16:00 +34°C° 0 mm 6 mps 756 mmHg 25%
17:00 +34°C° 0 mm 5 mps 756 mmHg 24%
18:00 +33°C° 0 mm 4 mps 756 mmHg 23%
19:00 +32°C° 0 mm 4 mps 756 mmHg 27%
20:00 +29°C° 0 mm 4 mps 756 mmHg 31%
21:00 +27°C° 0 mm 4 mps 757 mmHg 35%
22:00 +26°C° 0 mm 4 mps 757 mmHg 41%
23:00 +25°C° 0 mm 4 mps 757 mmHg 47%

16 July, Thursday

Time Temperature Precipitation Wind Pressure Humidity
00:00 +23°C° 0 mm 4 mps 757 mmHg 53%
01:00 +22°C° 0 mm 4 mps 757 mmHg 56%
02:00 +21°C° 0 mm 3 mps 757 mmHg 58%
03:00 +21°C° 0 mm 2 mps 757 mmHg 61%
04:00 +21°C° 0 mm 2 mps 757 mmHg 59%
05:00 +23°C° 0 mm 2 mps 757 mmHg 57%
06:00 +23°C° 0 mm 2 mps 757 mmHg 55%
07:00 +25°C° 0 mm 2 mps 757 mmHg 50%
08:00 +26°C° 0 mm 3 mps 757 mmHg 45%
09:00 +27°C° 0 mm 4 mps 757 mmHg 40%
10:00 +28°C° 0 mm 3 mps 756 mmHg 36%
11:00 +29°C° 0 mm 3 mps 756 mmHg 33%
12:00 +30°C° 0 mm 3 mps 756 mmHg 30%
13:00 +31°C° 0 mm 3 mps 756 mmHg 28%
14:00 +31°C° 0 mm 3 mps 756 mmHg 27%
15:00 +32°C° 0 mm 2 mps 755 mmHg 25%
16:00 +31°C° 0 mm 3 mps 755 mmHg 25%
17:00 +32°C° 0 mm 4 mps 755 mmHg 26%
18:00 +32°C° 0 mm 4 mps 755 mmHg 26%
19:00 +29°C° 0 mm 4 mps 755 mmHg 29%
20:00 +27°C° 0 mm 4 mps 755 mmHg 33%
21:00 +26°C° 0 mm 4 mps 755 mmHg 36%
22:00 +25°C° 0 mm 3 mps 755 mmHg 37%
23:00 +24°C° 0 mm 3 mps 755 mmHg 38%

17 July, Friday

Time Temperature Precipitation Wind Pressure Humidity
00:00 +22°C° 0 mm 3 mps 755 mmHg 40%
01:00 +23°C° 0 mm 2 mps 755 mmHg 43%
02:00 +21°C° 0 mm 2 mps 755 mmHg 45%
03:00 +20°C° 0 mm 2 mps 755 mmHg 48%
04:00 +21°C° 0 mm 2 mps 755 mmHg 49%
05:00 +21°C° 0 mm 3 mps 755 mmHg 49%
06:00 +22°C° 0 mm 3 mps 755 mmHg 50%
07:00 +24°C° 0 mm 3 mps 755 mmHg 47%
08:00 +26°C° 0 mm 3 mps 755 mmHg 43%
09:00 +27°C° 0 mm 3 mps 755 mmHg 39%
10:00 +28°C° 0 mm 3 mps 755 mmHg 36%
11:00 +29°C° 0 mm 4 mps 755 mmHg 32%
12:00 +30°C° 0 mm 4 mps 755 mmHg 29%
13:00 +30°C° 0 mm 4 mps 755 mmHg 27%
14:00 +32°C° 0 mm 5 mps 755 mmHg 26%
15:00 +32°C° 0 mm 5 mps 755 mmHg 25%
16:00 +30°C° 0 mm 5 mps 755 mmHg 27%
17:00 +30°C° 0 mm 5 mps 755 mmHg 30%
18:00 +29°C° 0 mm 5 mps 755 mmHg 32%
19:00 +28°C° 0 mm 5 mps 755 mmHg 37%
20:00 +26°C° 0 mm 4 mps 755 mmHg 42%
21:00 +25°C° 0 mm 3 mps 756 mmHg 46%
22:00 +24°C° 0 mm 3 mps 756 mmHg 49%
23:00 +24°C° 0 mm 3 mps 756 mmHg 53%

18 July, Saturday

Time Temperature Precipitation Wind Pressure Humidity
00:00 +22°C° 0 mm 3 mps 756 mmHg 56%
01:00 +21°C° 0 mm 3 mps 756 mmHg 58%
02:00 +21°C° 0 mm 3 mps 756 mmHg 61%
03:00 +20°C° 0 mm 3 mps 756 mmHg 63%
04:00 +21°C° 0 mm 3 mps 756 mmHg 63%
05:00 +21°C° 0 mm 3 mps 756 mmHg 62%
06:00 +22°C° 0 mm 3 mps 756 mmHg 62%
07:00 +24°C° 0 mm 3 mps 756 mmHg 56%
08:00 +26°C° 0 mm 3 mps 756 mmHg 50%
09:00 +27°C° 0 mm 3 mps 756 mmHg 44%
10:00 +28°C° 0 mm 4 mps 756 mmHg 40%
11:00 +29°C° 0 mm 4 mps 756 mmHg 37%
12:00 +30°C° 0 mm 4 mps 756 mmHg 33%
13:00 +30°C° 0 mm 4 mps 756 mmHg 33%
14:00 +30°C° 0 mm 4 mps 756 mmHg 33%
15:00 +30°C° 0 mm 4 mps 756 mmHg 33%
16:00 +30°C° 0 mm 5 mps 756 mmHg 34%
17:00 +29°C° 0 mm 5 mps 755 mmHg 35%
18:00 +29°C° 0 mm 5 mps 755 mmHg 35%
19:00 +27°C° 0 mm 4 mps 755 mmHg 40%
20:00 +26°C° 0 mm 3 mps 756 mmHg 44%
21:00 +25°C° 0 mm 3 mps 756 mmHg 48%
22:00 +24°C° 0 mm 3 mps 756 mmHg 50%
23:00 +24°C° 0 mm 3 mps 756 mmHg 52%
Show more